Location: Bakhuizen
(52.8696°N, 5.4575°E)
Time: 09:05:35
(UTC+00:00)

Cosmos 1743 - Pass Details

Date: 11 May 2021
Orbit: 510 x 525 km, 82.6° (Epoch: 15 June)

Event Time Altitude Azimuth Distance (km) Brightness Sun altitude
Rises 22:42:43 0° 341° (NNW) 2,653 8.0 -18.1°
Reaches altitude 10° 22:45:02 10° 330° (NNW) 1,762 6.5 -18.2°
Maximum altitude 22:48:23 29° 270° (W) 990 4.2 -18.3°
Enters shadow 22:49:50 22° 233° (SW) 1,173 4.2 -18.3°
